| time (UTC) | temp F | wind direction | speed MPH | gust MPH | rain 1hr in | rain 24hr in | rain mn in | humidity % | barometer mb |
| 20260507201607 | 49 | 225 | 3.0 | 12.0 | 0.00 | 0.01 | 0.01 | 57 | 1005.8 |
| 20260507200057 | 49 | 296 | 5.0 | 17.0 | 0.00 | 0.01 | 0.01 | 56 | 1005.8 |
| 20260507194555 | 49 | 297 | 4.0 | 17.0 | 0.00 | 0.01 | 0.01 | 56 | 1005.8 |
| 20260507193055 | 48 | 219 | 3.0 | 18.0 | 0.00 | 0.01 | 0.01 | 58 | 1005.8 |
| 20260507191553 | 48 | 292 | 4.0 | 17.0 | 0.00 | 0.01 | 0.01 | 59 | 1006.0 |
| 20260507190053 | 50 | 290 | 5.0 | 13.0 | 0.00 | 0.01 | 0.01 | 58 | 1005.8 |
| 20260507184551 | 49 | 273 | 3.0 | 18.0 | 0.00 | 0.03 | 0.01 | 57 | 1005.8 |
| 20260507183051 | 50 | 240 | 5.0 | 22.0 | 0.00 | 0.03 | 0.01 | 58 | 1005.9 |
| 20260507181549 | 50 | 296 | 5.0 | 16.0 | 0.00 | 0.03 | 0.01 | 58 | 1005.9 |
| 20260507180049 | 49 | 184 | 4.0 | 20.0 | 0.00 | 0.03 | 0.01 | 57 | 1005.9 |
| 20260507174557 | 49 | 258 | 7.0 | 21.0 | 0.00 | 0.06 | 0.01 | 59 | 1005.8 |
| 20260507173046 | 48 | 263 | 5.0 | 19.0 | 0.00 | 0.06 | 0.01 | 63 | 1005.9 |
| 20260507171555 | 47 | 304 | 3.0 | 17.0 | 0.00 | 0.06 | 0.01 | 67 | 1005.9 |
| 20260507170044 | 47 | 259 | 5.0 | 16.0 | 0.00 | 0.06 | 0.01 | 67 | 1006.1 |
| 20260507164541 | 47 | 298 | 4.0 | 11.0 | 0.00 | 0.11 | 0.01 | 66 | 1006.2 |
| 20260507163039 | 49 | 246 | 4.0 | 15.0 | 0.00 | 0.11 | 0.01 | 65 | 1006.2 |
| 20260507161539 | 49 | 218 | 1.0 | 13.0 | 0.01 | 0.11 | 0.01 | 68 | 1006.2 |
| 20260507160036 | 48 | 302 | 6.0 | 20.0 | 0.01 | 0.11 | 0.01 | 67 | 1006.3 |
| 20260507154536 | 48 | 177 | 5.0 | 19.0 | 0.01 | 0.19 | 0.01 | 68 | 1006.4 |
| 20260507153033 | 48 | 267 | 4.0 | 21.0 | 0.01 | 0.19 | 0.01 | 69 | 1006.4 |
| 20260507151530 | 49 | 227 | 4.0 | 15.0 | 0.00 | 0.18 | 0.00 | 68 | 1006.4 |
| 20260507150028 | 48 | 193 | 4.0 | 12.0 | 0.00 | 0.18 | 0.00 | 70 | 1006.5 |
| 20260507144526 | 46 | 257 | 6.0 | 15.0 | 0.00 | 0.24 | 0.00 | 74 | 1006.5 |
| 20260507143023 | 46 | 301 | 3.0 | 11.0 | 0.00 | 0.24 | 0.00 | 75 | 1006.8 |
| 20260507141519 | 47 | 259 | 3.0 | 12.0 | 0.00 | 0.24 | 0.00 | 78 | 1006.7 |
| 20260507140016 | 45 | 262 | 3.0 | 18.0 | 0.00 | 0.24 | 0.00 | 81 | 1006.7 |
| 20260507134511 | 43 | 245 | 2.0 | 12.0 | 0.00 | 0.30 | 0.00 | 81 | 1006.7 |
| 20260507133010 | 43 | 250 | 4.0 | 11.0 | 0.00 | 0.30 | 0.00 | 82 | 1006.8 |
| 20260507131507 | 42 | 296 | 5.0 | 14.0 | 0.00 | 0.30 | 0.00 | 82 | 1006.9 |
| 20260507130004 | 42 | 290 | 6.0 | 18.0 | 0.00 | 0.35 | 0.00 | 84 | 1006.9 |
| 20260507124508 | 42 | 276 | 3.0 | 15.0 | 0.00 | 0.35 | 0.00 | 87 | 1006.8 |
| 20260507123059 | 42 | 227 | 5.0 | 12.0 | 0.00 | 0.35 | 0.00 | 90 | 1006.9 |
| 20260507121556 | 43 | 227 | 1.0 | 11.0 | 0.00 | 0.35 | 0.00 | 93 | 1006.8 |
| 20260507120054 | 43 | 277 | 1.0 | 11.0 | 0.00 | 0.35 | 0.00 | 93 | 1006.6 |
| 20260507114652 | 43 | 275 | 2.0 | 8.0 | 0.00 | 0.40 | 0.00 | 96 | 1006.6 |
| 20260507113051 | 43 | 214 | 1.0 | 4.0 | 0.00 | 0.40 | 0.00 | 96 | 1006.5 |
| 20260507111551 | 42 | 290 | 2.0 | 9.0 | 0.00 | 0.40 | 0.00 | 97 | 1006.6 |
| 20260507110052 | 42 | 136 | 0.0 | 6.0 | 0.00 | 0.40 | 0.00 | 97 | 1006.3 |
| 20260507104550 | 42 | 284 | 0.0 | 4.0 | 0.00 | 0.42 | 0.00 | 98 | 1006.5 |
| 20260507103047 | 42 | 185 | 1.0 | 9.0 | 0.00 | 0.42 | 0.00 | 98 | 1006.6 |
| 20260507101549 | 42 | 239 | 1.0 | 8.0 | 0.00 | 0.42 | 0.00 | 98 | 1006.5 |
| 20260507100045 | 42 | 254 | 2.0 | 7.0 | 0.00 | 0.42 | 0.00 | 98 | 1006.4 |
| 20260507094546 | 41 | 269 | 0.0 | 7.0 | 0.00 | 0.42 | 0.00 | 99 | 1006.2 |
| 20260507093044 | 41 | 140 | 0.0 | 3.0 | 0.00 | 0.42 | 0.00 | 99 | 1006.1 |
| 20260507091540 | 41 | 275 | 0.0 | 4.0 | 0.00 | 0.42 | 0.00 | 99 | 1006.2 |
| 20260507090038 | 41 | 250 | 0.0 | 5.0 | 0.00 | 0.42 | 0.00 | 99 | 1006.2 |
| 20260507084538 | 41 | 260 | 0.0 | 3.0 | 0.00 | 0.42 | 0.00 | 99 | 1006.2 |
| 20260507083034 | 41 | 294 | 0.0 | 4.0 | 0.00 | 0.42 | 0.00 | 99 | 1006.6 |
| 20260507081533 | 41 | 269 | 0.0 | 2.0 | 0.00 | 0.42 | 0.00 | 99 | 1006.5 |
| 20260507080038 | 41 | 243 | 0.0 | 2.0 | 0.00 | 0.42 | 0.00 | 99 | 1006.6 |
| 20260507074532 | 41 | 292 | 0.0 | 4.0 | 0.00 | 0.44 | 0.00 | 99 | 1006.6 |
| 20260507073032 | 41 | 287 | 0.0 | 4.0 | 0.00 | 0.44 | 0.00 | 99 | 1006.5 |
| 20260507071530 | 40 | 292 | 1.0 | 5.0 | 0.00 | 0.44 | 0.00 | 100 | 1006.6 |
| 20260507070029 | 40 | 276 | 1.0 | 4.0 | 0.00 | 0.44 | 0.00 | 99 | 1006.5 |
| 20260507064528 | 40 | 167 | 0.0 | 2.0 | 0.00 | 0.44 | 0.00 | 99 | 1006.7 |
| 20260507063026 | 41 | 192 | 0.0 | 3.0 | 0.00 | 0.44 | 0.00 | 100 | 1006.6 |
| 20260507061525 | 40 | 202 | 0.0 | 5.0 | 0.00 | 0.44 | 0.00 | 100 | 1006.8 |
| 20260507060033 | 40 | 170 | 0.0 | 3.0 | 0.00 | 0.44 | 0.00 | 100 | 1006.8 |
| 20260507054522 | 40 | 176 | 0.0 | 1.0 | 0.00 | 0.45 | 0.00 | 100 | 1006.9 |
| 20260507053020 | 40 | 178 | 0.0 | 0.0 | 0.00 | 0.45 | 0.00 | 100 | 1007.1 |
| 20260507051517 | 40 | 178 | 0.0 | 0.0 | 0.00 | 0.45 | 0.00 | 100 | 1007.5 |
| 20260507050014 | 40 | 178 | 0.0 | 0.0 | 0.00 | 0.45 | 0.00 | 100 | 1007.7 |
| 20260507044530 | 40 | 192 | 0.0 | 0.0 | 0.00 | 0.50 | 0.00 | 100 | 1007.9 |
| 20260507043010 | 40 | 182 | 0.0 | 0.0 | 0.00 | 0.50 | 0.00 | 100 | 1008.0 |
| 20260507041509 | 40 | 182 | 0.0 | 0.0 | 0.00 | 0.50 | 0.00 | 100 | 1008.1 |
| 20260507040008 | 40 | 182 | 0.0 | 0.0 | 0.00 | 0.55 | 0.50 | 100 | 1008.1 |
| 20260507034506 | 41 | 281 | 0.0 | 0.0 | 0.00 | 0.55 | 0.50 | 100 | 1008.3 |
| 20260507033005 | 41 | 281 | 0.0 | 2.0 | 0.00 | 0.55 | 0.50 | 100 | 1008.3 |
| 20260507031504 | 41 | 277 | 0.0 | 0.0 | 0.00 | 0.55 | 0.50 | 100 | 1008.3 |
| 20260507030004 | 41 | 277 | 0.0 | 0.0 | 0.00 | 0.59 | 0.50 | 100 | 1008.1 |
| 20260507024502 | 41 | 277 | 0.0 | 0.0 | 0.00 | 0.59 | 0.50 | 100 | 1008.2 |
| 20260507023003 | 42 | 277 | 0.0 | 1.0 | 0.00 | 0.59 | 0.50 | 100 | 1008.4 |
| 20260507021501 | 42 | 277 | 0.0 | 1.0 | 0.00 | 0.59 | 0.50 | 100 | 1008.6 |
| 20260507020001 | 42 | 279 | 0.0 | 3.0 | 0.00 | 0.59 | 0.50 | 100 | 1008.8 |
| 20260507014603 | 42 | 348 | 0.0 | 0.0 | 0.00 | 0.59 | 0.50 | 100 | 1008.5 |
| 20260507013103 | 42 | 348 | 0.0 | 0.0 | 0.00 | 0.59 | 0.50 | 99 | 1008.4 |
| 20260507011600 | 42 | 348 | 0.0 | 0.0 | 0.00 | 0.59 | 0.50 | 99 | 1008.4 |
| 20260507010059 | 42 | 348 | 0.0 | 0.0 | 0.00 | 0.59 | 0.50 | 98 | 1008.3 |
| 20260507004600 | 42 | 348 | 0.0 | 0.0 | 0.00 | 0.59 | 0.50 | 98 | 1008.0 |
| 20260507003057 | 43 | 348 | 0.0 | 0.0 | 0.00 | 0.59 | 0.50 | 97 | 1007.9 |
| 20260507001600 | 43 | 348 | 0.0 | 0.0 | 0.00 | 0.59 | 0.50 | 97 | 1008.0 |
| 20260507000056 | 44 | 348 | 0.0 | 0.0 | 0.00 | 0.59 | 0.50 | 96 | 1008.0 |
| 20260506234557 | 44 | 348 | 0.0 | 0.0 | 0.00 | 0.59 | 0.50 | 96 | 1007.7 |
| 20260506233055 | 45 | 348 | 0.0 | 0.0 | 0.00 | 0.59 | 0.50 | 94 | 1007.6 |
| 20260506231554 | 45 | 348 | 0.0 | 0.0 | 0.00 | 0.59 | 0.50 | 93 | 1007.5 |
| 20260506230055 | 45 | 348 | 0.0 | 0.0 | 0.00 | 0.59 | 0.50 | 94 | 1007.5 |
| 20260506224603 | 45 | 348 | 0.0 | 0.0 | 0.00 | 0.59 | 0.50 | 92 | 1007.7 |
| 20260506223052 | 45 | 348 | 0.0 | 0.0 | 0.00 | 0.59 | 0.50 | 93 | 1007.6 |
| 20260506221554 | 45 | 348 | 0.0 | 1.0 | 0.00 | 0.59 | 0.50 | 92 | 1007.4 |
| 20260506220051 | 46 | 5 | 0.0 | 1.0 | 0.00 | 0.59 | 0.50 | 92 | 1007.7 |
| 20260506214606 | 45 | 5 | 0.0 | 2.0 | 0.00 | 0.59 | 0.50 | 93 | 1007.4 |
| 20260506213049 | 45 | 262 | 0.0 | 1.0 | 0.00 | 0.59 | 0.50 | 94 | 1007.8 |
| 20260506211549 | 45 | 247 | 0.0 | 1.0 | 0.00 | 0.59 | 0.50 | 94 | 1007.7 |
| 20260506210052 | 45 | 331 | 0.0 | 0.0 | 0.00 | 0.59 | 0.50 | 94 | 1007.8 |
| 20260506204551 | 45 | 343 | 1.0 | 3.0 | 0.00 | 0.59 | 0.50 | 95 | 1007.6 |
| 20260506203051 | 45 | 310 | 0.0 | 2.0 | 0.00 | 0.59 | 0.50 | 96 | 1007.7 |